Weather reports worldwide

Advertisment
Farnborough, United Kingdom (3768): temperature & dewpoint: 24.05.2020 22:00:00 - 30.05.2020 22:00:00 (BST)Farnborough, United Kingdom (3768): temperature -100cm: 24.05.2020 22:00:00 - 30.05.2020 22:00:00 (BST)Farnborough, United Kingdom (3768): wind speed: 24.05.2020 22:00:00 - 30.05.2020 22:00:00 (BST)Farnborough, United Kingdom (3768): wind direction: 24.05.2020 22:00:00 - 30.05.2020 22:00:00 (BST)Farnborough, United Kingdom (3768): reduced air pressure: 24.05.2020 22:00:00 - 30.05.2020 22:00:00 (BST)Farnborough, United Kingdom (3768): visibility: 24.05.2020 22:00:00 - 30.05.2020 22:00:00 (BST)Farnborough, United Kingdom (3768): precipitation: 24.05.2020 22:00:00 - 30.05.2020 22:00:00 (BST)
Date & Time tt [°C] td [°C] tt -100cm [°C] ff [km/h] ff [kn] dd ppp [hPa] vv [km] rr [mm]
30.05.2020 22:00:00 16,3 5,3 - 22 12 ENE 1021,9 10 0,0
30.05.2020 21:00:00 17,6 4,4 - 18 10 E 1021,2 50 0,0
30.05.2020 20:00:00 19,8 4,1 - 26 14 ENE 1020,9 10 0,0
30.05.2020 19:00:00 21,1 4,0 - 26 14 ENE 1020,8 10 0,0
30.05.2020 18:00:00 22,0 2,3 - 26 14 E 1020,8 10 0,0
30.05.2020 17:00:00 22,8 3,2 - 28 15 E 1021,1 10 0,0
30.05.2020 16:00:00 23,4 3,8 - 29 16 E 1021,2 10 0,0
30.05.2020 15:00:00 24,1 4,7 - 24 13 E 1021,5 10 0,0
30.05.2020 14:00:00 23,9 5,8 - 26 14 ENE 1021,8 10 0,0
30.05.2020 13:00:00 23,1 8,7 - 15 8 E 1022,3 40 0,0
30.05.2020 12:00:00 21,5 10,1 - 15 8 ENE 1022,9 10 0,0
30.05.2020 11:00:00 19,8 10,6 - 11 6 - 1023,3 10 0,0
30.05.2020 10:00:00 17,4 10,5 13,7 9 5 NE 1023,6 10 0,0
30.05.2020 09:00:00 15,4 10,7 - 11 6 NE 1023,8 10 0,0
30.05.2020 08:00:00 12,6 10,2 - 11 6 NE 1023,9 10 0,0
30.05.2020 07:00:00 10,5 9,1 - 11 6 ENE 1024,0 10 0,0
30.05.2020 06:00:00 7,1 6,3 - 0 0 N 1024,2 10 0,0
30.05.2020 05:00:00 7,8 5,5 - 2 1 NE 1024,2 10 0,0
30.05.2020 04:00:00 9,4 7,9 - 5 3 ENE 1024,4 10 0,0
30.05.2020 03:00:00 9,5 7,0 - 9 5 ENE 1024,6 10 0,0
30.05.2020 02:00:00 9,9 5,6 - 13 7 ENE 1024,8 30 0,0
30.05.2020 01:00:00 11,0 4,8 - 13 7 E 1025,0 10 0,0
30.05.2020 00:00:00 10,1 2,3 - 11 6 E 1025,1 10 0,0
29.05.2020 23:00:00 12,0 1,4 - 15 8 E 1025,1 10 0,0
29.05.2020 22:00:00 13,9 1,5 - 15 8 E 1025,1 10 0,0
29.05.2020 21:00:00 15,8 2,2 - 18 10 E 1024,4 10 0,0
29.05.2020 20:00:00 18,8 2,6 - 22 12 ENE 1024,3 10 0,0
29.05.2020 19:00:00 20,7 2,4 - 21 11 E 1024,2 10 0,0
29.05.2020 18:00:00 21,7 1,0 - 21 11 ENE 1024,4 10 0,0
29.05.2020 17:00:00 22,7 0,4 - 22 12 ENE 1024,7 10 0,0
29.05.2020 16:00:00 23,0 0,9 - 18 10 ENE 1025,1 10 0,0
29.05.2020 15:00:00 22,9 2,2 - 21 11 ENE 1025,6 55 0,0
29.05.2020 14:00:00 22,4 6,0 - 21 11 NE 1026,1 10 0,0
29.05.2020 13:00:00 22,2 5,7 - 16 9 ESE 1026,9 10 0,0
29.05.2020 12:00:00 21,5 7,6 - 16 9 ENE 1027,6 40 0,0
29.05.2020 11:00:00 19,9 7,1 - 18 10 E 1028,3 10 0,0
29.05.2020 10:00:00 18,2 8,8 13,7 13 7 E 1028,5 10 0,0
29.05.2020 09:00:00 16,1 8,4 - 15 8 E 1028,8 10 0,0
29.05.2020 08:00:00 14,1 8,6 - 11 6 ENE 1028,9 30 0,0
29.05.2020 07:00:00 12,2 8,7 - 11 6 ENE 1029,1 10 0,0
29.05.2020 06:00:00 7,9 6,7 - 2 1 - 1029,5 10 0,0
29.05.2020 05:00:00 9,2 6,8 - 2 1 - 1029,4 10 0,0
29.05.2020 04:00:00 9,5 6,9 - 8 4 ENE 1029,8 10 0,0
29.05.2020 03:00:00 9,4 6,5 - 9 5 E 1030,1 10 0,0
29.05.2020 02:00:00 10,6 7,0 - 5 3 E 1030,3 30 0,0
29.05.2020 01:00:00 11,1 6,9 - 11 6 ENE 1030,5 10 0,0
29.05.2020 00:00:00 11,8 6,6 - 15 8 E 1030,8 10 0,0
28.05.2020 23:00:00 12,5 4,6 - 15 8 E 1030,9 10 0,0
28.05.2020 22:00:00 14,1 2,4 - 22 12 E 1031,1 10 0,0
28.05.2020 21:00:00 15,1 2,0 - 16 9 E 1031,0 10 0,0
28.05.2020 20:00:00 17,4 2,1 - 21 11 E 1030,8 55 0,0
28.05.2020 19:00:00 19,1 2,8 - 22 12 E 1030,7 10 0,0
28.05.2020 18:00:00 20,5 3,1 - 24 13 E 1030,8 55 0,0
28.05.2020 17:00:00 21,5 4,8 - 21 11 ENE 1030,9 10 0,0
28.05.2020 16:00:00 21,5 5,2 - 21 11 ENE 1031,4 10 0,0
28.05.2020 15:00:00 22,1 7,1 - 16 9 ENE 1031,9 10 0,0
28.05.2020 14:00:00 21,1 6,3 - 15 8 E 1032,5 10 0,0
28.05.2020 13:00:00 20,4 6,8 - 16 9 E 1033,1 10 0,0
28.05.2020 12:00:00 19,6 8,5 - 16 9 ENE 1033,7 10 0,0
28.05.2020 11:00:00 17,7 8,8 - 16 9 ENE 1034,3 35 0,0
28.05.2020 10:00:00 16,8 9,8 13,4 18 10 ENE 1035,0 10 0,0
28.05.2020 09:00:00 14,8 9,6 - 15 8 NE 1035,4 10 0,0
28.05.2020 08:00:00 13,2 9,3 - 16 9 ENE 1035,7 10 0,0
28.05.2020 07:00:00 12,4 9,8 - 13 7 NE 1035,8 10 0,0
28.05.2020 06:00:00 11,0 9,5 - 9 5 E 1035,5 10 0,0
28.05.2020 05:00:00 11,2 9,0 - 9 5 ENE 1035,3 10 0,0
28.05.2020 04:00:00 12,4 9,3 - 9 5 ENE 1035,3 10 0,0
28.05.2020 03:00:00 11,9 9,2 - 9 5 E 1035,4 40 0,0
28.05.2020 02:00:00 13,1 10,0 - 11 6 E 1035,3 10 0,0
28.05.2020 01:00:00 14,1 10,8 - 13 7 ENE 1035,6 10 0,0
28.05.2020 00:00:00 15,1 9,7 - 5 3 SE 1035,3 45 0,0
27.05.2020 23:00:00 15,7 8,7 - 4 2 - 1035,1 10 0,0
27.05.2020 22:00:00 16,8 9,3 - 8 4 S 1034,8 10 0,0
27.05.2020 21:00:00 18,7 10,7 - 15 8 SSE 1034,1 10 0,0
27.05.2020 20:00:00 21,0 11,5 - 13 7 SSE 1033,4 10 0,0
27.05.2020 19:00:00 23,5 11,4 - 11 6 ENE 1033,2 10 0,0
27.05.2020 18:00:00 23,9 11,5 - 4 2 - 1033,3 10 0,0
27.05.2020 17:00:00 23,1 11,3 - 9 5 ENE 1033,6 10 0,0
27.05.2020 16:00:00 24,5 11,3 - 9 5 - 1033,9 10 0,0
27.05.2020 15:00:00 24,0 11,5 - 5 3 - 1034,1 10 0,0
27.05.2020 14:00:00 24,0 11,8 - 4 2 - 1034,4 10 0,0
27.05.2020 13:00:00 23,5 11,8 - 8 4 - 1034,9 10 0,0
27.05.2020 12:00:00 22,6 10,7 - 8 4 NNW 1035,2 50 0,0
27.05.2020 11:00:00 21,4 9,7 - 5 3 - 1035,6 10 0,0
27.05.2020 10:00:00 20,4 10,4 13,2 8 4 - 1035,8 10 0,0
27.05.2020 09:00:00 18,7 10,0 - 11 6 S 1035,9 10 0,0
27.05.2020 08:00:00 16,9 9,5 - 2 1 ENE 1036,0 40 0,0
27.05.2020 07:00:00 13,5 9,8 - 4 2 - 1035,9 10 0,0
27.05.2020 06:00:00 9,6 8,4 - 8 4 SW 1035,9 10 0,0
27.05.2020 05:00:00 9,2 7,6 - 5 3 SSW 1035,8 10 0,0
27.05.2020 04:00:00 11,6 8,5 - 0 0 N 1035,6 10 0,0
27.05.2020 03:00:00 13,3 7,6 - 8 4 ENE 1035,6 10 0,0
27.05.2020 02:00:00 15,0 9,9 - 11 6 NE 1035,5 10 0,0
27.05.2020 01:00:00 13,3 10,9 - 5 3 - 1035,3 10 0,0
27.05.2020 00:00:00 15,3 12,1 - 8 4 WSW 1035,0 10 0,0
26.05.2020 23:00:00 17,5 11,0 - 4 2 - 1035,1 10 0,0
26.05.2020 22:00:00 19,2 11,7 - 9 5 N 1034,9 10 0,0
26.05.2020 21:00:00 20,9 12,0 - 13 7 N 1034,6 10 0,0
26.05.2020 20:00:00 23,1 7,8 - 11 6 N 1034,3 10 0,0
26.05.2020 19:00:00 23,5 5,1 - 9 5 NNW 1034,2 10 0,0
26.05.2020 18:00:00 24,6 5,2 - 13 7 W 1034,4 10 0,0
26.05.2020 17:00:00 24,6 7,7 - 11 6 NW 1034,4 10 0,0
26.05.2020 16:00:00 24,9 8,5 - 9 5 SSW 1034,8 10 0,0
26.05.2020 15:00:00 24,2 9,1 - 11 6 NW 1035,1 10 0,0
26.05.2020 14:00:00 23,5 8,5 - 8 4 N 1035,3 45 0,0
26.05.2020 13:00:00 22,7 8,9 - 11 6 NW 1035,6 45 0,0
26.05.2020 12:00:00 22,7 10,9 - 4 2 NNE 1035,9 30 0,0
26.05.2020 11:00:00 21,4 10,2 - 9 5 W 1036,1 60 0,0
26.05.2020 10:00:00 19,8 9,5 13,2 9 5 NW 1036,3 10 0,0
26.05.2020 09:00:00 17,2 9,6 - 5 3 - 1036,6 10 0,0
26.05.2020 08:00:00 14,7 9,9 - 4 2 - 1036,3 10 0,0
26.05.2020 07:00:00 12,2 9,7 - 2 1 - 1036,0 10 0,0
26.05.2020 06:00:00 9,4 8,0 - 2 1 W 1036,2 35 0,0
26.05.2020 05:00:00 8,7 7,1 - 5 3 WSW 1035,9 10 0,0
26.05.2020 04:00:00 7,9 6,5 - 5 3 WSW 1035,6 10 0,0
26.05.2020 03:00:00 8,6 6,3 - 5 3 SW 1035,5 10 0,0
26.05.2020 02:00:00 10,0 6,8 - 4 2 SSW 1035,2 10 0,0
26.05.2020 01:00:00 10,5 7,1 - 4 2 S 1035,3 10 0,0
26.05.2020 00:00:00 10,8 6,9 - 5 3 SSW 1035,2 10 0,0
25.05.2020 23:00:00 14,2 7,9 - 2 1 - 1034,7 10 0,0
25.05.2020 22:00:00 15,4 8,6 - 5 3 SSW 1034,7 10 0,0
25.05.2020 21:00:00 17,5 8,9 - 11 6 SW 1034,2 40 0,0
25.05.2020 20:00:00 20,0 9,9 - 21 11 SW 1033,6 10 0,0
25.05.2020 19:00:00 21,6 10,5 - 21 11 SSW 1033,5 10 0,0
25.05.2020 18:00:00 23,0 10,1 - 16 9 SSW 1033,6 10 0,0
25.05.2020 17:00:00 23,4 6,9 - 11 6 WSW 1033,4 10 0,0
25.05.2020 16:00:00 23,3 6,9 - 11 6 W 1033,6 10 0,0
25.05.2020 15:00:00 23,8 7,4 - 13 7 W 1033,9 10 0,0
25.05.2020 14:00:00 22,8 7,9 - 11 6 SSW 1034,2 10 0,0
25.05.2020 13:00:00 22,2 7,4 - 11 6 WSW 1034,5 45 0,0
25.05.2020 12:00:00 21,3 9,1 - 13 7 W 1034,6 10 0,0
25.05.2020 11:00:00 20,0 9,9 - 8 4 S 1034,8 10 0,0
25.05.2020 10:00:00 18,1 9,6 13,0 4 2 - 1035,4 10 0,0
25.05.2020 09:00:00 16,5 9,4 - 4 2 - 1035,4 10 0,0
25.05.2020 08:00:00 12,8 8,7 - 8 4 NW 1035,4 10 0,0
25.05.2020 07:00:00 10,3 9,1 - 5 3 - 1035,2 10 0,0
25.05.2020 06:00:00 6,6 5,6 - 4 2 - 1035,1 10 0,0
25.05.2020 05:00:00 7,3 6,1 - 2 1 - 1034,9 10 0,0
25.05.2020 04:00:00 8,3 6,9 - 8 4 WSW 1034,5 10 0,0
25.05.2020 03:00:00 9,0 7,1 - 5 3 WSW 1034,4 29 0,0
25.05.2020 02:00:00 8,7 5,2 - 8 4 WSW 1034,3 10 0,0
25.05.2020 01:00:00 9,6 6,1 - 9 5 SW 1034,3 10 0,0
25.05.2020 00:00:00 11,5 6,0 - 4 2 - 1033,9 10 0,0
24.05.2020 23:00:00 14,0 8,5 - 8 4 W 1033,6 10 0,0
24.05.2020 22:00:00 14,0 9,4 - 9 5 SW 1033,1 10 0,0

tt = temperature
td = dewpoint
tt -100cm = temperature -100cm
ff = wind speed
dd = wind direction
ppp = reduced air pressure
vv = visibility
rr = precipitation

Next stations